EZY41MS EGGP-LEMG

Flight info

Callsign EZY41MS
Flight time 2h 36m
Altitude 37000
Route REXAM N42 MIDJO P17 OSSEP/N0449F360 DCT ELNIF DCT ZESPE DCT KLAKI DCT SALCO/N0450F370 DCT NOVAN DCT DELOG DCT CRISA DCT VULPE
Aircraft A319/M-SDE3FGHIRWY/LB1

Departure

Time 2026-05-07 18:43
Airport Liverpool John Lennon Airport (EGGP)

Arrival

Time 2026-05-07 21:20
Airport Málaga-Costa del Sol Airport (LEMG)
Time Latitude Longitude Altitude Speed Heading
2026-05-07 18:08 53.33586 -2.85194 89 ft 0 kts 265°
2026-05-07 18:30 53.33587 -2.85167 91 ft 3 kts 265°
2026-05-07 18:31 53.33589 -2.85129 89 ft 3 kts 265°
2026-05-07 18:31 53.33595 -2.85090 91 ft 3 kts 221°
2026-05-07 18:31 53.33619 -2.85073 89 ft 4 kts 181°
2026-05-07 18:31 53.33625 -2.85072 89 ft 4 kts 175°
2026-05-07 18:32 53.33599 -2.85069 92 ft 2 kts 175°
2026-05-07 18:32 53.33598 -2.85069 92 ft 0 kts 175°
2026-05-07 18:37 53.33594 -2.85068 91 ft 2 kts 175°
2026-05-07 18:37 53.33568 -2.85065 89 ft 5 kts 175°
2026-05-07 18:38 53.33531 -2.85044 90 ft 6 kts 129°
2026-05-07 18:38 53.33529 -2.84954 89 ft 9 kts 85°
2026-05-07 18:38 53.33534 -2.84847 91 ft 10 kts 85°
2026-05-07 18:38 53.33540 -2.84733 91 ft 10 kts 85°
2026-05-07 18:39 53.33546 -2.84609 89 ft 12 kts 85°
2026-05-07 18:39 53.33554 -2.84443 93 ft 16 kts 85°
2026-05-07 18:39 53.33562 -2.84264 90 ft 16 kts 85°
2026-05-07 18:39 53.33570 -2.84083 91 ft 16 kts 85°
2026-05-07 18:40 53.33579 -2.83900 90 ft 16 kts 85°
2026-05-07 18:40 53.33587 -2.83718 89 ft 16 kts 85°
2026-05-07 18:40 53.33596 -2.83538 89 ft 15 kts 85°
2026-05-07 18:40 53.33592 -2.83378 90 ft 13 kts 114°
2026-05-07 18:41 53.33542 -2.83305 89 ft 3 kts 164°
2026-05-07 18:41 53.33541 -2.83305 89 ft 0 kts 165°
2026-05-07 18:41 53.33529 -2.83301 89 ft 4 kts 171°
2026-05-07 18:42 53.33491 -2.83297 89 ft 7 kts 177°
2026-05-07 18:42 53.33446 -2.83317 91 ft 6 kts 235°
2026-05-07 18:42 53.33436 -2.83387 92 ft 4 kts 264°
2026-05-07 18:42 53.33435 -2.83408 92 ft 6 kts 264°
2026-05-07 18:43 53.33421 -2.83716 89 ft 61 kts 265°
2026-05-07 18:43 53.33371 -2.84797 89 ft 125 kts 265°
2026-05-07 18:43 53.33292 -2.86517 325 ft 152 kts 265°
2026-05-07 18:43 53.33219 -2.88199 1085 ft 144 kts 263°
2026-05-07 18:44 53.33138 -2.89900 1659 ft 147 kts 262°
2026-05-07 18:44 53.33033 -2.91684 2005 ft 167 kts 261°
2026-05-07 18:44 53.32907 -2.93745 2318 ft 190 kts 262°
2026-05-07 18:44 53.32765 -2.96083 2624 ft 215 kts 262°
2026-05-07 18:45 53.32604 -2.98711 3072 ft 239 kts 262°
2026-05-07 18:45 53.32431 -3.01569 3788 ft 252 kts 262°
2026-05-07 18:45 53.32253 -3.04516 4756 ft 256 kts 262°
2026-05-07 18:45 53.32075 -3.07491 5755 ft 258 kts 261°
2026-05-07 18:46 53.31883 -3.10498 6617 ft 263 kts 258°
2026-05-07 18:46 53.31191 -3.13255 6908 ft 258 kts 227°
2026-05-07 18:46 53.29685 -3.14791 7257 ft 260 kts 194°
2026-05-07 18:46 53.27888 -3.15183 8217 ft 262 kts 183°
2026-05-07 18:47 53.26052 -3.15184 9155 ft 266 kts 180°
2026-05-07 18:47 53.24191 -3.15103 10070 ft 269 kts 180°
2026-05-07 18:47 53.22258 -3.15053 10525 ft 289 kts 181°
2026-05-07 18:47 53.20173 -3.15071 10814 ft 312 kts 182°
2026-05-07 18:48 53.17954 -3.15161 11350 ft 324 kts 183°
2026-05-07 18:48 53.15677 -3.15302 12066 ft 330 kts 184°
2026-05-07 18:48 53.13365 -3.15474 12814 ft 335 kts 184°
2026-05-07 18:48 53.11013 -3.15662 13542 ft 341 kts 184°
2026-05-07 18:49 53.08651 -3.15528 14191 ft 348 kts 173°
2026-05-07 18:49 53.06258 -3.14494 14853 ft 355 kts 160°
2026-05-07 18:49 53.04082 -3.12603 15522 ft 362 kts 148°
2026-05-07 18:49 53.02062 -3.09984 16206 ft 366 kts 143°
2026-05-07 18:50 53.00068 -3.07319 16884 ft 370 kts 143°
2026-05-07 18:50 52.98077 -3.04676 17553 ft 373 kts 143°
2026-05-07 18:50 52.96040 -3.01987 18221 ft 377 kts 143°
2026-05-07 18:50 52.95340 -3.01064 18430 ft 378 kts 143°
2026-05-07 18:51 52.94593 -3.00097 18620 ft 379 kts 144°
2026-05-07 18:51 52.92506 -2.97393 18928 ft 382 kts 144°
2026-05-07 18:51 52.90421 -2.94659 19006 ft 382 kts 143°
2026-05-07 18:51 52.88341 -2.91916 19021 ft 382 kts 143°
2026-05-07 18:52 52.86263 -2.89175 19025 ft 382 kts 143°
2026-05-07 18:52 52.84180 -2.86431 19028 ft 382 kts 143°
2026-05-07 18:52 52.82076 -2.83756 19029 ft 381 kts 148°
2026-05-07 18:52 52.79769 -2.81616 19027 ft 379 kts 158°
2026-05-07 18:53 52.77301 -2.80179 19029 ft 376 kts 167°
2026-05-07 18:53 52.74728 -2.79378 19029 ft 375 kts 173°
2026-05-07 18:53 52.72150 -2.78699 19146 ft 378 kts 173°
2026-05-07 18:53 52.69536 -2.78008 19762 ft 380 kts 173°
2026-05-07 18:54 52.66918 -2.77315 20349 ft 383 kts 173°
2026-05-07 18:54 52.64271 -2.76611 20929 ft 387 kts 173°
2026-05-07 18:54 52.61595 -2.75976 21501 ft 389 kts 177°
2026-05-07 18:54 52.58883 -2.75963 22055 ft 391 kts 185°
2026-05-07 18:55 52.56159 -2.76197 22605 ft 394 kts 185°
2026-05-07 18:55 52.53444 -2.76442 23142 ft 397 kts 185°
2026-05-07 18:55 52.50676 -2.76693 23666 ft 400 kts 185°
2026-05-07 18:55 52.47884 -2.76942 24118 ft 403 kts 185°
2026-05-07 18:56 52.45075 -2.77192 24575 ft 406 kts 185°
2026-05-07 18:56 52.42244 -2.77442 25022 ft 408 kts 185°
2026-05-07 18:56 52.39393 -2.77690 25462 ft 411 kts 185°
2026-05-07 18:56 52.36530 -2.77938 25904 ft 413 kts 185°
2026-05-07 18:57 52.33649 -2.78182 26347 ft 416 kts 185°
2026-05-07 18:57 52.30750 -2.78426 26781 ft 418 kts 185°
2026-05-07 18:57 52.27834 -2.78671 27205 ft 421 kts 185°
2026-05-07 18:57 52.24901 -2.78919 27636 ft 423 kts 185°
2026-05-07 18:58 52.22949 -2.79085 27914 ft 425 kts 185°
2026-05-07 18:58 52.18985 -2.79423 28461 ft 428 kts 185°
2026-05-07 18:58 52.16000 -2.79678 28863 ft 430 kts 185°
2026-05-07 18:58 52.14013 -2.79847 29119 ft 432 kts 185°
2026-05-07 18:59 52.11001 -2.80103 29505 ft 434 kts 185°
2026-05-07 18:59 52.07981 -2.80360 29886 ft 436 kts 185°
2026-05-07 18:59 52.04938 -2.80621 30023 ft 437 kts 185°
2026-05-07 19:00 51.98877 -2.81137 30038 ft 437 kts 185°
2026-05-07 19:00 51.92808 -2.81648 30043 ft 437 kts 185°
2026-05-07 19:01 51.86745 -2.82162 30047 ft 436 kts 185°
2026-05-07 19:01 51.80711 -2.83034 30058 ft 435 kts 188°
2026-05-07 19:02 51.74822 -2.84415 30044 ft 434 kts 190°
2026-05-07 19:02 51.68847 -2.85854 30058 ft 434 kts 189°
2026-05-07 19:03 51.62865 -2.87161 30062 ft 434 kts 188°
2026-05-07 19:03 51.56887 -2.88406 30054 ft 433 kts 188°
2026-05-07 19:04 51.50912 -2.89658 30028 ft 433 kts 188°
2026-05-07 19:04 51.44932 -2.90924 30027 ft 433 kts 188°
2026-05-07 19:05 51.38951 -2.92183 30028 ft 433 kts 188°
2026-05-07 19:05 51.33011 -2.93432 30028 ft 433 kts 188°
2026-05-07 19:06 51.27838 -2.94516 30031 ft 433 kts 188°
2026-05-07 19:06 51.18876 -2.96388 30032 ft 433 kts 188°
2026-05-07 19:07 51.12899 -2.97634 30029 ft 433 kts 188°
2026-05-07 19:07 51.06922 -2.98884 30027 ft 433 kts 188°
2026-05-07 19:08 51.00943 -3.00123 30031 ft 433 kts 188°
2026-05-07 19:08 50.94971 -3.01352 30029 ft 433 kts 188°
2026-05-07 19:09 50.88995 -3.02579 30030 ft 432 kts 188°
2026-05-07 19:09 50.83036 -3.03816 30028 ft 432 kts 188°
2026-05-07 19:10 50.77071 -3.05055 30028 ft 432 kts 188°
2026-05-07 19:10 50.71158 -3.06264 30028 ft 431 kts 188°
2026-05-07 19:11 50.65203 -3.07476 30030 ft 431 kts 188°
2026-05-07 19:11 50.59264 -3.08685 30030 ft 430 kts 188°
2026-05-07 19:12 50.53312 -3.09894 30345 ft 433 kts 188°
2026-05-07 19:12 50.50317 -3.10505 30669 ft 435 kts 188°
2026-05-07 19:12 50.47320 -3.11119 31069 ft 434 kts 188°
2026-05-07 19:13 50.44327 -3.11727 31533 ft 432 kts 188°
2026-05-07 19:13 50.41350 -3.12327 31988 ft 431 kts 188°
2026-05-07 19:13 50.38387 -3.12981 32438 ft 429 kts 192°
2026-05-07 19:13 50.35518 -3.14201 32883 ft 427 kts 200°
2026-05-07 19:14 50.32762 -3.15932 33329 ft 426 kts 202°
2026-05-07 19:14 50.30029 -3.17682 33775 ft 424 kts 202°
2026-05-07 19:14 50.27339 -3.19397 34179 ft 423 kts 202°
2026-05-07 19:14 50.24610 -3.21126 34512 ft 423 kts 202°
2026-05-07 19:15 50.21881 -3.22846 34815 ft 424 kts 202°
2026-05-07 19:15 50.19142 -3.24571 35106 ft 425 kts 202°
2026-05-07 19:15 50.16399 -3.26297 35400 ft 425 kts 202°
2026-05-07 19:15 50.13656 -3.28022 35679 ft 426 kts 203°
2026-05-07 19:16 50.10897 -3.29758 35946 ft 427 kts 203°
2026-05-07 19:16 50.08141 -3.31494 36197 ft 428 kts 203°
2026-05-07 19:16 50.05378 -3.33231 36451 ft 428 kts 203°
2026-05-07 19:16 50.02610 -3.34964 36693 ft 429 kts 203°
2026-05-07 19:17 49.99836 -3.36697 36925 ft 430 kts 203°
2026-05-07 19:17 49.97055 -3.38434 37000 ft 431 kts 203°
2026-05-07 19:17 49.91492 -3.41910 37006 ft 431 kts 203°
2026-05-07 19:18 49.86013 -3.45327 36999 ft 431 kts 203°
2026-05-07 19:18 49.80450 -3.48780 36999 ft 431 kts 203°
2026-05-07 19:19 49.74891 -3.52069 37000 ft 432 kts 197°
2026-05-07 19:19 49.68918 -3.53206 36993 ft 435 kts 184°
2026-05-07 19:20 49.62869 -3.53502 36985 ft 435 kts 184°
2026-05-07 19:20 49.56814 -3.53844 36984 ft 436 kts 184°
2026-05-07 19:21 49.50749 -3.54178 36982 ft 436 kts 184°
2026-05-07 19:21 49.44681 -3.54496 36985 ft 436 kts 184°
2026-05-07 19:22 49.38615 -3.54811 36986 ft 437 kts 184°
2026-05-07 19:22 49.32579 -3.55126 36986 ft 437 kts 184°
2026-05-07 19:23 49.26506 -3.55436 36986 ft 437 kts 184°
2026-05-07 19:23 49.20423 -3.55750 36994 ft 437 kts 184°
2026-05-07 19:24 49.14346 -3.56072 36991 ft 437 kts 184°
2026-05-07 19:24 49.08259 -3.56391 36998 ft 437 kts 184°
2026-05-07 19:25 49.02179 -3.56709 36997 ft 437 kts 184°
2026-05-07 19:25 48.96090 -3.57019 36999 ft 438 kts 184°
2026-05-07 19:26 48.89995 -3.57331 37003 ft 438 kts 184°
2026-05-07 19:26 48.83901 -3.57645 37005 ft 438 kts 184°
2026-05-07 19:27 48.77842 -3.57953 37006 ft 438 kts 184°
2026-05-07 19:27 48.71738 -3.58257 37002 ft 438 kts 184°
2026-05-07 19:28 48.65646 -3.58575 36999 ft 438 kts 184°
2026-05-07 19:28 48.59549 -3.58888 36998 ft 438 kts 184°
2026-05-07 19:29 48.53456 -3.59194 36993 ft 438 kts 184°
2026-05-07 19:29 48.47363 -3.59501 36989 ft 438 kts 184°
2026-05-07 19:30 48.41263 -3.59800 36988 ft 439 kts 184°
2026-05-07 19:30 48.35161 -3.60108 36989 ft 439 kts 184°
2026-05-07 19:31 48.29052 -3.60418 36991 ft 439 kts 184°
2026-05-07 19:31 48.22934 -3.60726 36988 ft 440 kts 184°
2026-05-07 19:32 48.16847 -3.61025 36990 ft 440 kts 184°
2026-05-07 19:32 48.10724 -3.61332 36998 ft 441 kts 184°
2026-05-07 19:33 48.04587 -3.61635 36992 ft 441 kts 184°
2026-05-07 19:33 47.98452 -3.61942 36991 ft 441 kts 184°
2026-05-07 19:34 47.92320 -3.62243 36988 ft 441 kts 184°
2026-05-07 19:34 47.86183 -3.62543 36987 ft 441 kts 184°
2026-05-07 19:35 47.80094 -3.62851 36989 ft 442 kts 184°
2026-05-07 19:35 47.73887 -3.63158 36985 ft 442 kts 184°
2026-05-07 19:36 47.67777 -3.63446 36988 ft 442 kts 184°
2026-05-07 19:36 47.61622 -3.63748 36989 ft 443 kts 184°
2026-05-07 19:37 47.55464 -3.64058 36988 ft 443 kts 184°
2026-05-07 19:37 47.49302 -3.64361 36991 ft 443 kts 184°
2026-05-07 19:38 47.43131 -3.64642 36985 ft 443 kts 184°
2026-05-07 19:38 47.36962 -3.64940 36984 ft 444 kts 184°
2026-05-07 19:39 47.30790 -3.65247 36988 ft 444 kts 184°
2026-05-07 19:39 47.25654 -3.65498 36988 ft 444 kts 184°
2026-05-07 19:40 47.18429 -3.65847 36991 ft 445 kts 184°
2026-05-07 19:40 47.12279 -3.66137 36995 ft 445 kts 184°
2026-05-07 19:41 47.06094 -3.66438 36994 ft 445 kts 184°
2026-05-07 19:41 46.99903 -3.66735 36993 ft 445 kts 184°
2026-05-07 19:42 46.93704 -3.67035 36992 ft 445 kts 184°
2026-05-07 19:42 46.87509 -3.67328 36994 ft 446 kts 184°
2026-05-07 19:43 46.81297 -3.67611 36992 ft 446 kts 184°
2026-05-07 19:43 46.75089 -3.67906 36992 ft 446 kts 184°
2026-05-07 19:44 46.68882 -3.68197 36993 ft 446 kts 184°
2026-05-07 19:44 46.62712 -3.68484 36988 ft 446 kts 184°
2026-05-07 19:45 46.56500 -3.68780 36987 ft 447 kts 184°
2026-05-07 19:45 46.50290 -3.69079 36986 ft 447 kts 184°
2026-05-07 19:46 46.44073 -3.69368 36979 ft 447 kts 184°
2026-05-07 19:46 46.37860 -3.69651 36984 ft 447 kts 184°
2026-05-07 19:47 46.31642 -3.69951 36977 ft 447 kts 185°
2026-05-07 19:47 46.25450 -3.70693 36977 ft 446 kts 189°
2026-05-07 19:48 46.19339 -3.71760 36966 ft 446 kts 189°
2026-05-07 19:48 46.13172 -3.72786 36974 ft 446 kts 188°
2026-05-07 19:49 46.07000 -3.73706 36965 ft 446 kts 188°
2026-05-07 19:49 46.00817 -3.74602 36980 ft 446 kts 188°
2026-05-07 19:50 45.94631 -3.75504 36972 ft 446 kts 188°
2026-05-07 19:50 45.88454 -3.76416 36972 ft 446 kts 188°
2026-05-07 19:51 45.82274 -3.77332 36967 ft 447 kts 188°
2026-05-07 19:51 45.76125 -3.78236 36967 ft 447 kts 188°
2026-05-07 19:52 45.69943 -3.79144 36964 ft 447 kts 188°
2026-05-07 19:52 45.63759 -3.80053 36960 ft 447 kts 188°
2026-05-07 19:53 45.57570 -3.80965 36959 ft 447 kts 188°
2026-05-07 19:53 45.51383 -3.81867 36960 ft 447 kts 188°
2026-05-07 19:54 45.45198 -3.82756 36954 ft 447 kts 188°
2026-05-07 19:54 45.39050 -3.83650 36951 ft 447 kts 188°
2026-05-07 19:55 45.32865 -3.84544 36945 ft 447 kts 188°
2026-05-07 19:55 45.26681 -3.85441 36941 ft 447 kts 189°
2026-05-07 19:56 45.20495 -3.86332 36943 ft 447 kts 189°
2026-05-07 19:56 45.15358 -3.87070 36939 ft 447 kts 189°
2026-05-07 19:57 45.09172 -3.87963 36939 ft 447 kts 189°
2026-05-07 19:57 45.02973 -3.88843 36939 ft 447 kts 189°
2026-05-07 19:58 44.96777 -3.89723 36938 ft 447 kts 189°
2026-05-07 19:58 44.90580 -3.90609 36937 ft 448 kts 189°
2026-05-07 19:59 44.84390 -3.91494 36938 ft 448 kts 189°
2026-05-07 19:59 44.78223 -3.92371 36941 ft 448 kts 189°
2026-05-07 20:00 44.71989 -3.93250 36936 ft 448 kts 189°
2026-05-07 20:00 44.65827 -3.94121 36935 ft 448 kts 189°
2026-05-07 20:01 44.59627 -3.95002 36931 ft 447 kts 189°
2026-05-07 20:01 44.53431 -3.95877 36924 ft 447 kts 189°
2026-05-07 20:02 44.47231 -3.96737 36919 ft 448 kts 189°
2026-05-07 20:02 44.41038 -3.97602 36918 ft 447 kts 189°
2026-05-07 20:03 44.34839 -3.98477 36922 ft 447 kts 189°
2026-05-07 20:03 44.28644 -3.99306 36912 ft 448 kts 188°
2026-05-07 20:04 44.22458 -3.99997 36913 ft 448 kts 188°
2026-05-07 20:04 44.16235 -4.00663 36911 ft 448 kts 188°
2026-05-07 20:05 44.10008 -4.01359 36909 ft 449 kts 188°
2026-05-07 20:05 44.03788 -4.02074 36910 ft 449 kts 188°
2026-05-07 20:06 43.97561 -4.02791 36909 ft 449 kts 188°
2026-05-07 20:06 43.91337 -4.03503 36907 ft 449 kts 188°
2026-05-07 20:07 43.85159 -4.04197 36897 ft 449 kts 188°
2026-05-07 20:07 43.78934 -4.04897 36895 ft 449 kts 188°
2026-05-07 20:08 43.72713 -4.05605 36890 ft 448 kts 188°
2026-05-07 20:08 43.66489 -4.06300 36886 ft 448 kts 188°
2026-05-07 20:09 43.60270 -4.06995 36881 ft 449 kts 188°
2026-05-07 20:10 43.50936 -4.08035 36880 ft 449 kts 189°
2026-05-07 20:10 43.44703 -4.08740 36881 ft 449 kts 189°
2026-05-07 20:11 43.38471 -4.09440 36880 ft 450 kts 189°
2026-05-07 20:11 43.32231 -4.10132 36889 ft 450 kts 189°
2026-05-07 20:12 43.25971 -4.10820 36896 ft 451 kts 189°
2026-05-07 20:12 43.19760 -4.11508 36924 ft 451 kts 189°
2026-05-07 20:13 43.13497 -4.12206 36916 ft 452 kts 189°
2026-05-07 20:13 43.07234 -4.12899 36922 ft 451 kts 189°
2026-05-07 20:14 43.00970 -4.13583 36927 ft 451 kts 189°
2026-05-07 20:14 42.94708 -4.14268 36935 ft 452 kts 190°
2026-05-07 20:15 42.88440 -4.14951 36938 ft 452 kts 190°
2026-05-07 20:15 42.82166 -4.15633 36945 ft 452 kts 190°
2026-05-07 20:16 42.75892 -4.16326 36947 ft 452 kts 190°
2026-05-07 20:16 42.69618 -4.17020 36949 ft 452 kts 190°
2026-05-07 20:17 42.63347 -4.17706 36941 ft 452 kts 190°
2026-05-07 20:17 42.57063 -4.18377 36944 ft 452 kts 190°
2026-05-07 20:18 42.50838 -4.19045 36941 ft 452 kts 191°
2026-05-07 20:18 42.44555 -4.19731 36945 ft 453 kts 191°
2026-05-07 20:19 42.38279 -4.20412 36951 ft 452 kts 191°
2026-05-07 20:19 42.32009 -4.21091 36954 ft 453 kts 191°
2026-05-07 20:20 42.25721 -4.21761 36950 ft 453 kts 191°
2026-05-07 20:20 42.19439 -4.22431 36951 ft 453 kts 191°
2026-05-07 20:21 42.13148 -4.23098 36952 ft 453 kts 191°
2026-05-07 20:21 42.06862 -4.23771 36954 ft 453 kts 191°
2026-05-07 20:22 42.00632 -4.24441 36952 ft 452 kts 191°
2026-05-07 20:22 41.94366 -4.25106 36955 ft 452 kts 191°
2026-05-07 20:23 41.88104 -4.25770 36951 ft 451 kts 191°
2026-05-07 20:23 41.81845 -4.26439 36953 ft 451 kts 191°
2026-05-07 20:24 41.75595 -4.27091 36954 ft 450 kts 192°
2026-05-07 20:24 41.69351 -4.27751 36954 ft 450 kts 192°
2026-05-07 20:25 41.63114 -4.28409 36954 ft 449 kts 192°
2026-05-07 20:25 41.56892 -4.29063 36954 ft 448 kts 192°
2026-05-07 20:26 41.50682 -4.29715 36955 ft 447 kts 192°
2026-05-07 20:26 41.44479 -4.30365 36953 ft 447 kts 192°
2026-05-07 20:27 41.38289 -4.31011 36951 ft 446 kts 192°
2026-05-07 20:27 41.32111 -4.31663 36953 ft 445 kts 192°
2026-05-07 20:28 41.25948 -4.32315 36950 ft 444 kts 192°
2026-05-07 20:28 41.19784 -4.32946 36950 ft 444 kts 192°
2026-05-07 20:29 41.13625 -4.33585 36952 ft 443 kts 192°
2026-05-07 20:29 41.07482 -4.34218 36954 ft 443 kts 192°
2026-05-07 20:30 41.01380 -4.34841 36951 ft 442 kts 192°
2026-05-07 20:30 40.95252 -4.35479 36957 ft 442 kts 192°
2026-05-07 20:31 40.89127 -4.36121 36959 ft 441 kts 192°
2026-05-07 20:31 40.83011 -4.36749 36959 ft 440 kts 192°
2026-05-07 20:32 40.76904 -4.37373 36963 ft 440 kts 192°
2026-05-07 20:32 40.70804 -4.37996 36965 ft 439 kts 192°
2026-05-07 20:33 40.64706 -4.38622 36968 ft 439 kts 193°
2026-05-07 20:33 40.58611 -4.39246 36963 ft 439 kts 193°
2026-05-07 20:34 40.52530 -4.39863 36960 ft 438 kts 193°
2026-05-07 20:34 40.46450 -4.40475 36963 ft 438 kts 193°
2026-05-07 20:35 40.40378 -4.41091 36959 ft 437 kts 193°
2026-05-07 20:35 40.34327 -4.41707 36955 ft 436 kts 193°
2026-05-07 20:36 40.28309 -4.42316 36952 ft 436 kts 193°
2026-05-07 20:36 40.22264 -4.42931 36949 ft 435 kts 193°
2026-05-07 20:37 40.16231 -4.43541 36948 ft 435 kts 193°
2026-05-07 20:37 40.10210 -4.44142 36942 ft 434 kts 193°
2026-05-07 20:38 40.04188 -4.44744 36939 ft 433 kts 193°
2026-05-07 20:38 39.98180 -4.45341 36942 ft 433 kts 193°
2026-05-07 20:39 39.92183 -4.45945 36938 ft 431 kts 193°
2026-05-07 20:39 39.86201 -4.46548 36938 ft 431 kts 193°
2026-05-07 20:40 39.80234 -4.47146 36940 ft 429 kts 193°
2026-05-07 20:40 39.74315 -4.47732 36941 ft 429 kts 193°
2026-05-07 20:41 39.68371 -4.48321 36939 ft 428 kts 193°
2026-05-07 20:41 39.62438 -4.48908 36934 ft 427 kts 193°
2026-05-07 20:42 39.56515 -4.49494 36953 ft 427 kts 193°
2026-05-07 20:42 39.50595 -4.50081 36939 ft 426 kts 193°
2026-05-07 20:43 39.44693 -4.50664 36936 ft 425 kts 193°
2026-05-07 20:43 39.38797 -4.51250 36938 ft 424 kts 193°
2026-05-07 20:44 39.32915 -4.51831 36930 ft 424 kts 193°
2026-05-07 20:44 39.27073 -4.52403 36931 ft 424 kts 193°
2026-05-07 20:45 39.21203 -4.52971 36930 ft 423 kts 193°
2026-05-07 20:45 39.15330 -4.53542 36928 ft 423 kts 193°
2026-05-07 20:46 39.09464 -4.54114 36928 ft 422 kts 193°
2026-05-07 20:46 39.03618 -4.54687 36924 ft 421 kts 193°
2026-05-07 20:47 38.97780 -4.55252 36914 ft 421 kts 193°
2026-05-07 20:47 38.91992 -4.55895 36911 ft 417 kts 196°
2026-05-07 20:48 38.86287 -4.57034 36908 ft 413 kts 199°
2026-05-07 20:48 38.80643 -4.58353 36908 ft 412 kts 199°
2026-05-07 20:49 38.74983 -4.59600 36908 ft 413 kts 198°
2026-05-07 20:49 38.69307 -4.60774 36910 ft 413 kts 198°
2026-05-07 20:50 38.63630 -4.61931 36916 ft 413 kts 198°
2026-05-07 20:50 38.58916 -4.62900 36920 ft 412 kts 198°
2026-05-07 20:51 38.53253 -4.64077 36918 ft 412 kts 198°
2026-05-07 20:51 38.47596 -4.65241 36915 ft 412 kts 198°
2026-05-07 20:52 38.41948 -4.66404 36915 ft 411 kts 198°
2026-05-07 20:52 38.36307 -4.67574 36910 ft 410 kts 198°
2026-05-07 20:53 38.30672 -4.68733 36910 ft 411 kts 198°
2026-05-07 20:53 38.25031 -4.69883 36910 ft 411 kts 198°
2026-05-07 20:54 38.19392 -4.71042 36728 ft 413 kts 197°
2026-05-07 20:54 38.16560 -4.71627 35880 ft 418 kts 197°
2026-05-07 20:54 38.13683 -4.72218 35140 ft 420 kts 197°
2026-05-07 20:54 38.10789 -4.72813 34300 ft 424 kts 196°
2026-05-07 20:55 38.07872 -4.73409 33477 ft 426 kts 195°
2026-05-07 20:55 38.04934 -4.74007 32555 ft 429 kts 195°
2026-05-07 20:55 38.01968 -4.74610 31576 ft 433 kts 195°
2026-05-07 20:55 37.98988 -4.75216 30906 ft 431 kts 194°
2026-05-07 20:56 37.96049 -4.75808 30362 ft 425 kts 194°
2026-05-07 20:56 37.93145 -4.76393 29734 ft 421 kts 194°
2026-05-07 20:56 37.90268 -4.76973 29141 ft 415 kts 194°
2026-05-07 20:56 37.87434 -4.77547 28580 ft 410 kts 194°
2026-05-07 20:57 37.84635 -4.78116 28016 ft 405 kts 194°
2026-05-07 20:57 37.81871 -4.78676 27461 ft 401 kts 194°
2026-05-07 20:57 37.79132 -4.79225 26915 ft 397 kts 193°
2026-05-07 20:57 37.76376 -4.79414 26373 ft 399 kts 182°
2026-05-07 20:58 37.73611 -4.78964 25783 ft 403 kts 172°
2026-05-07 20:58 37.70905 -4.78027 25208 ft 403 kts 169°
2026-05-07 20:58 37.68208 -4.77068 24647 ft 402 kts 169°
2026-05-07 20:58 37.65522 -4.76123 24089 ft 400 kts 169°
2026-05-07 20:59 37.62881 -4.75200 23547 ft 398 kts 169°
2026-05-07 20:59 37.60214 -4.74271 22970 ft 396 kts 169°
2026-05-07 20:59 37.57533 -4.73337 22448 ft 393 kts 169°
2026-05-07 20:59 37.54941 -4.72438 21972 ft 390 kts 169°
2026-05-07 21:00 37.52338 -4.71537 21485 ft 387 kts 169°
2026-05-07 21:00 37.49744 -4.70638 20992 ft 385 kts 169°
2026-05-07 21:00 37.47173 -4.69746 20520 ft 383 kts 169°
2026-05-07 21:00 37.44629 -4.68860 20298 ft 372 kts 169°
2026-05-07 21:01 37.42173 -4.68000 20174 ft 360 kts 169°
2026-05-07 21:01 37.39806 -4.67171 20050 ft 347 kts 169°
2026-05-07 21:01 37.37571 -4.66120 19886 ft 343 kts 158°
2026-05-07 21:01 37.35491 -4.64636 19562 ft 341 kts 155°
2026-05-07 21:02 37.33446 -4.63131 19149 ft 340 kts 155°
2026-05-07 21:02 37.31414 -4.61633 18788 ft 337 kts 155°
2026-05-07 21:02 37.29399 -4.60145 18432 ft 335 kts 155°
2026-05-07 21:02 37.27328 -4.58869 18059 ft 327 kts 166°
2026-05-07 21:03 37.25181 -4.58235 17662 ft 318 kts 178°
2026-05-07 21:03 37.22960 -4.58145 17240 ft 314 kts 184°
2026-05-07 21:03 37.20784 -4.58139 16856 ft 312 kts 184°
2026-05-07 21:03 37.18613 -4.58120 16472 ft 310 kts 183°
2026-05-07 21:04 37.16457 -4.58097 16104 ft 309 kts 183°
2026-05-07 21:04 37.14313 -4.58075 15741 ft 307 kts 183°
2026-05-07 21:04 37.12211 -4.58058 15389 ft 306 kts 183°
2026-05-07 21:04 37.10101 -4.58041 15213 ft 298 kts 182°
2026-05-07 21:05 37.08058 -4.58021 15087 ft 289 kts 182°
2026-05-07 21:05 37.06075 -4.58004 14891 ft 281 kts 182°
2026-05-07 21:05 37.04135 -4.57987 14465 ft 278 kts 182°
2026-05-07 21:05 37.02213 -4.57971 14012 ft 276 kts 182°
2026-05-07 21:06 37.00294 -4.57956 13536 ft 274 kts 182°
2026-05-07 21:06 36.98394 -4.57945 13040 ft 272 kts 182°
2026-05-07 21:06 36.96515 -4.57945 12630 ft 266 kts 185°
2026-05-07 21:06 36.94800 -4.58569 12271 ft 255 kts 214°
2026-05-07 21:07 36.93634 -4.60181 11820 ft 253 kts 244°
2026-05-07 21:07 36.93293 -4.62337 11333 ft 257 kts 267°
2026-05-07 21:07 36.93281 -4.64576 10819 ft 259 kts 268°
2026-05-07 21:07 36.93478 -4.66808 10367 ft 260 kts 289°
2026-05-07 21:08 36.94508 -4.68644 9982 ft 262 kts 321°
2026-05-07 21:08 36.96158 -4.69536 9681 ft 261 kts 354°
2026-05-07 21:08 36.97989 -4.69604 9554 ft 265 kts 360°
2026-05-07 21:08 36.99824 -4.69617 9422 ft 259 kts 360°
2026-05-07 21:09 37.01573 -4.69629 9250 ft 252 kts 359°
2026-05-07 21:09 37.03317 -4.69721 8903 ft 250 kts 348°
2026-05-07 21:09 37.04845 -4.70643 8578 ft 244 kts 315°
2026-05-07 21:09 37.05745 -4.72383 8249 ft 237 kts 283°
2026-05-07 21:10 37.05772 -4.74395 7942 ft 230 kts 255°
2026-05-07 21:10 37.05134 -4.76189 7688 ft 226 kts 226°
2026-05-07 21:10 37.03848 -4.77245 7432 ft 223 kts 197°
2026-05-07 21:10 37.02345 -4.77736 7192 ft 224 kts 191°
2026-05-07 21:11 37.00820 -4.78144 6952 ft 223 kts 191°
2026-05-07 21:11 36.99306 -4.78535 6712 ft 221 kts 190°
2026-05-07 21:11 36.96330 -4.79312 6226 ft 216 kts 190°
2026-05-07 21:12 36.94851 -4.79589 5963 ft 214 kts 177°
2026-05-07 21:12 36.93400 -4.79412 5713 ft 212 kts 171°
2026-05-07 21:12 36.91964 -4.79148 5567 ft 204 kts 170°
2026-05-07 21:12 36.90619 -4.78698 5550 ft 199 kts 155°
2026-05-07 21:13 36.89383 -4.77922 5549 ft 199 kts 153°
2026-05-07 21:13 36.88147 -4.77158 5528 ft 199 kts 153°
2026-05-07 21:13 36.86904 -4.76399 5396 ft 198 kts 153°
2026-05-07 21:13 36.85757 -4.75468 5297 ft 197 kts 136°
2026-05-07 21:14 36.84799 -4.74226 5132 ft 199 kts 132°
2026-05-07 21:14 36.83878 -4.72941 4882 ft 199 kts 131°
2026-05-07 21:14 36.82961 -4.71648 4612 ft 199 kts 131°
2026-05-07 21:14 36.82039 -4.70348 4327 ft 200 kts 131°
2026-05-07 21:15 36.81113 -4.69044 4058 ft 200 kts 131°
2026-05-07 21:15 36.80197 -4.67754 3760 ft 198 kts 131°
2026-05-07 21:15 36.79286 -4.66473 3478 ft 196 kts 131°
2026-05-07 21:15 36.78388 -4.65208 3208 ft 194 kts 131°
2026-05-07 21:16 36.77499 -4.63959 2932 ft 190 kts 131°
2026-05-07 21:16 36.76651 -4.62766 2664 ft 182 kts 131°
2026-05-07 21:16 36.75830 -4.61611 2418 ft 174 kts 131°
2026-05-07 21:16 36.75043 -4.60506 2176 ft 168 kts 131°
2026-05-07 21:17 36.74274 -4.59425 1934 ft 165 kts 130°
2026-05-07 21:17 36.73503 -4.58343 1701 ft 164 kts 130°
2026-05-07 21:17 36.72772 -4.57317 1468 ft 157 kts 131°
2026-05-07 21:17 36.72065 -4.56325 1254 ft 147 kts 131°
2026-05-07 21:18 36.71414 -4.55412 1039 ft 136 kts 130°
2026-05-07 21:18 36.71015 -4.54853 920 ft 134 kts 130°
2026-05-07 21:18 36.70523 -4.54159 750 ft 132 kts 130°
2026-05-07 21:18 36.69915 -4.53313 603 ft 131 kts 131°
2026-05-07 21:19 36.69302 -4.52479 368 ft 129 kts 130°
2026-05-07 21:19 36.68721 -4.51641 209 ft 128 kts 129°
2026-05-07 21:19 36.68130 -4.50801 64 ft 125 kts 131°
2026-05-07 21:19 36.67641 -4.50116 54 ft 91 kts 131°
2026-05-07 21:20 36.67301 -4.49636 48 ft 55 kts 131°
2026-05-07 21:20 36.67145 -4.49377 45 ft 30 kts 111°
2026-05-07 21:20 36.67102 -4.49181 41 ft 12 kts 100°
2026-05-07 21:20 36.67113 -4.49099 41 ft 5 kts 63°
2026-05-07 21:21 36.67135 -4.49063 42 ft 5 kts 42°
2026-05-07 21:21 36.67168 -4.49048 42 ft 5 kts 350°
2026-05-07 21:21 36.67183 -4.49064 42 ft 0 kts 319°
2026-05-07 21:21 36.67187 -4.49068 41 ft 1 kts 320°
2026-05-07 21:22 36.67210 -4.49091 42 ft 7 kts 320°
2026-05-07 21:22 36.67249 -4.49138 42 ft 8 kts 315°
2026-05-07 21:22 36.67289 -4.49193 42 ft 9 kts 310°
2026-05-07 21:22 36.67332 -4.49238 42 ft 0 kts 317°
2026-05-07 21:23 36.67334 -4.49240 42 ft 1 kts 315°
2026-05-07 21:23 36.67340 -4.49248 42 ft 2 kts 313°
2026-05-07 21:23 36.67351 -4.49262 42 ft 3 kts 320°
2026-05-07 21:23 36.67375 -4.49265 42 ft 4 kts
2026-05-07 21:24 36.67409 -4.49259 42 ft 5 kts
2026-05-07 21:24 36.67435 -4.49253 42 ft 2 kts
2026-05-07 21:24 36.67437 -4.49253 42 ft 0 kts